Content
SEND FEEDBACK

Daily
Averages
Monthly
Summary
United States of America

BARRINGTON, ILLINOIS


Home > North America > United States > Illinois
Elevation: 810 feet     Latitude: 42 10N     Longitude: 088 09W

WEATHER
 
SELECT A DAY
Number of Records: 196,551;   Date Range: 1/1/95 - 7/26/14
 
SHARE

PRINT THIS DATA

[ ← Previous Day ]
WEATHER ALMANAC - MARCH 15, 2013
[ Next Day → ]
[ °C ]   °F
Weather ElementAverageHighLow
Temperature35.4 °F41 °F (11:51 am)30.2 °F (1:51 am)
Dewpoint32.5 °F37.4 °F (3:58 pm)28.4 °F (1:51 am)
Humidity89.2 %100 % (6:01 pm)70 % (11:51 am)
Barometer29.88 in30.03 in (1:51 am)29.75 in (11:51 pm)
Wind Speed6.2 mph10.4 mph (4:51 pm)
Wind Gust19.6 mph (10:27 pm)
Weather ElementAverage
Visibility6.3 mi
Wind DirectionESE (97.6 °)

Weather ElementTotal
Precipitation0.26 in
Heating Degree Days29.4 (Base 65)
Averaged from 29 records on March 15, 2013
WEATHER CONDITIONS BREAKOUT
WIND DIRECTION BREAKOUT
WEATHER BY HOUR - MARCH 15, 2013
[ °C ]   °F
Local TimeTemperatureDewpointHumidityBarometerVisibilityWind DirectionWind SpeedGust SpeedPrecipitationEventsConditions
1:51 AM30.2 °F28.4 °F93 %30.03 in10.0 miSSW (210°)8.1 mphMostly Cloudy
2:51 AM32.0 °F28.9 °F88 %30.02 in10.0 miSSW (210°)5.8 mphMostly Cloudy
3:51 AM32.0 °F28.9 °F88 %29.99 in10.0 miSW (220°)6.9 mphMostly Cloudy
4:51 AM32.0 °F28.9 °F88 %29.97 in10.0 miSW (230°)6.9 mphMostly Cloudy
5:51 AM32.0 °F28.9 °F88 %29.97 in10.0 miSW (230°)3.5 mphMostly Cloudy
6:51 AM32.0 °F28.9 °F88 %29.96 in10.0 miSW (220°)3.5 mphMostly Cloudy
7:51 AM32.0 °F30.0 °F92 %29.95 in8.0 miSSW (210°)4.6 mphOvercast
8:51 AM34.0 °F30.0 °F85 %29.95 in9.0 miWSW (250°)6.9 mphOvercast
9:51 AM36.0 °F30.9 °F82 %29.94 in10.0 miWSW (250°)4.6 mphOvercast
10:51 AM39.0 °F32.0 °F76 %29.93 in10.0 miCalmOvercast
11:51 AM41.0 °F32.0 °F70 %29.91 in10.0 miCalmOvercast
12:51 PM41.0 °F33.1 °F73 %29.91 in6.0 miCalm0.00 inRainLight Rain
1:51 PM41.0 °F34.0 °F76 %29.89 in5.0 miCalm0.02 inRainLight Rain
2:51 PM39.9 °F36.0 °F86 %29.88 in5.0 miCalm0.04 inRainLight Rain
3:51 PM39.9 °F37.0 °F89 %29.87 in5.0 miENE (60°)8.1 mph0.05 inRainRain
3:58 PM39.2 °F37.4 °F93 %29.84 in4.0 miENE (70°)8.1 mph0.01 inRainLight Rain
4:21 PM37.4 °F35.6 °F93 %29.84 in3.0 miENE (70°)6.9 mph0.03 inRainLight Rain
4:51 PM35.1 °F34.0 °F96 %29.87 in3.0 miENE (60°)10.4 mph0.04 inRainLight Rain
5:51 PM34.0 °F33.1 °F96 %29.84 in3.0 miNE (50°)9.2 mph0.04 inRainLight Rain
6:01 PM33.8 °F33.8 °F100 %29.81 in2.0 miENE (60°)10.4 mph0.01 inRainLight Rain
6:45 PM33.8 °F33.8 °F100 %29.79 in3.0 miEast (80°)9.2 mph0.01 inOvercast
6:51 PM34.0 °F33.1 °F96 %29.81 in3.0 miEast (80°)9.2 mph0.01 inOvercast
7:51 PM35.1 °F33.1 °F92 %29.83 in4.0 miNE (40°)4.6 mphOvercast
8:51 PM35.1 °F33.1 °F92 %29.86 in4.0 miNNE (20°)5.8 mphOvercast
9:45 PM35.6 °F33.8 °F93 %29.81 in5.0 miNNE (30°)9.2 mphOvercast
9:51 PM35.1 °F33.1 °F92 %29.83 in5.0 miNNE (30°)10.4 mphOvercast
10:27 PM35.6 °F33.8 °F93 %29.78 in5.0 miNE (50°)8.1 mph19.6 mphOvercast
10:51 PM35.1 °F33.1 °F92 %29.78 in6.0 miENE (60°)10.4 mphOvercast
11:51 PM35.1 °F34.0 °F96 %29.75 in5.0 miNE (40°)10.4 mphOvercast
Hourly data recorded from KORD, located miles away from Barrington, Illinois







STORIES FROM OUR PARTNERS